GW2742 Weather Reports


time (UTC)temp
C
wind
direction
speed
KPH
gust
KPH
rain 1hr
cm
rain 24hr
cm
rain mn
cm
humidity
%
barometer
mb
20260901163527 21 225 0.0 6.4 0.00 0.00 0.00 46 1015.0
20260901163054 21 0 1.6 8.0 0.00 0.00 0.00 41 1014.9
20260901162525 21 233 1.6 8.0 0.00 0.00 0.00 46 1015.0
20260901162029 21 161 1.6 8.0 0.00 0.00 0.00 44 1015.0
20260901161552 20 204 3.2 8.0 0.00 0.00 0.00 42 1015.1
20260901161026 20 198 3.2 8.0 0.00 0.00 0.00 42 1015.0
20260901160525 20 224 3.2 8.0 0.00 0.00 0.00 42 1015.0
20260901160105 20 206 1.6 6.4 0.00 0.00 0.00 43 1015.1
20260901155527 20 197 1.6 6.4 0.00 0.00 0.00 45 1015.2
20260901155028 19 255 3.2 6.4 0.00 0.00 0.00 43 1015.2
20260901154545 19 260 0.0 3.2 0.00 0.00 0.00 42 1015.1
20260901154025 19 0 0.0 3.2 0.00 0.00 0.00 43 1015.2
20260901153526 18 0 0.0 3.2 0.00 0.00 0.00 42 1015.3
20260901153058 18 0 0.0 0.0 0.00 0.00 0.00 49 1015.4
20260901152529 17 0 0.0 1.6 0.00 0.00 0.00 53 1015.3
20260901152025 17 0 0.0 1.6 0.00 0.00 0.00 52 1015.3
20260901151546 17 203 0.0 3.2 0.00 0.00 0.00 53 1015.4
20260901151026 16 0 0.0 4.8 0.00 0.00 0.00 59 1015.3
20260901150530 16 203 1.6 4.8 0.00 0.00 0.00 59 1015.3
20260901150058 16 203 3.2 4.8 0.00 0.00 0.00 54 1015.2
20260901145527 16 191 1.6 4.8 0.00 0.00 0.00 56 1015.2
20260901145027 15 0 0.0 4.8 0.00 0.00 0.00 61 1015.2
20260901144549 15 0 0.0 4.8 0.00 0.00 0.00 59 1015.4
20260901144025 15 211 1.6 6.4 0.00 0.00 0.00 60 1015.5
20260901143527 14 212 1.6 6.4 0.00 0.00 0.00 58 1015.4
20260901143107 14 275 3.2 4.8 0.00 0.00 0.00 58 1015.4
20260901142525 13 262 1.6 4.8 0.00 0.00 0.00 59 1015.4
20260901142024 13 272 0.0 8.0 0.00 0.00 0.00 62 1015.4
20260901141545 13 0 0.0 8.0 0.00 0.00 0.00 64 1015.3
20260901141025 12 307 0.0 4.8 0.00 0.00 0.00 68 1015.3
20260901140526 12 0 0.0 6.4 0.00 0.00 0.00 67 1015.2
20260901140128 11 291 1.6 6.4 0.00 0.00 0.00 65 1015.2
20260901135529 11 259 3.2 6.4 0.00 0.00 0.00 65 1015.2
20260901135028 11 0 0.0 3.2 0.00 0.00 0.00 66 1015.2
20260901134549 11 0 0.0 4.8 0.00 0.00 0.00 66 1015.2
20260901134031 10 0 1.6 4.8 0.00 0.00 0.00 66 1015.1
20260901133527 10 271 0.0 3.2 0.00 0.00 0.00 68 1015.0
20260901133046 10 271 0.0 3.2 0.00 0.00 0.00 70 1015.1
20260901132529 10 295 0.0 3.2 0.00 0.00 0.00 73 1015.0
20260901132031 10 0 0.0 4.8 0.00 0.00 0.00 72 1014.8
20260901131546 10 0 0.0 4.8 0.00 0.00 0.00 72 1014.9
20260901131028 10 295 1.6 4.8 0.00 0.00 0.00 69 1015.0
20260901130530 10 0 0.0 3.2 0.00 0.00 0.00 69 1015.0
20260901130051 10 0 1.6 4.8 0.00 0.00 0.00 69 1014.8
20260901125524 10 0 0.0 4.8 0.00 0.00 0.00 71 1014.8
20260901125025 10 293 0.0 4.8 0.00 0.00 0.00 70 1014.9
20260901124547 10 0 0.0 4.8 0.00 0.00 0.00 70 1014.8
20260901124030 10 295 0.0 4.8 0.00 0.00 0.00 70 1014.9
20260901123529 10 0 0.0 0.0 0.00 0.00 0.00 68 1015.2
20260901123045 10 0 0.0 0.0 0.00 0.00 0.00 66 1015.1
20260901122526 10 0 0.0 0.0 0.00 0.00 0.00 66 1015.1
20260901122027 10 0 0.0 3.2 0.00 0.00 0.00 67 1015.0
20260901121543 10 0 0.0 3.2 0.00 0.00 0.00 68 1015.0
20260901121029 10 0 0.0 3.2 0.00 0.00 0.00 69 1015.1
20260901120526 10 154 0.0 4.8 0.00 0.00 0.00 69 1015.1
20260901120052 10 0 0.0 8.0 0.00 0.00 0.00 70 1015.1
20260901115529 10 206 3.2 8.0 0.00 0.00 0.00 69 1015.1
20260901115024 10 216 0.0 3.2 0.00 0.00 0.00 69 1015.2
20260901114550 10 216 0.0 4.8 0.00 0.00 0.00 68 1015.1
20260901114028 10 216 1.6 4.8 0.00 0.00 0.00 68 1015.2
20260901113532 10 208 0.0 4.8 0.00 0.00 0.00 69 1015.1
20260901113045 10 209 0.0 4.8 0.00 0.00 0.00 69 1014.9
20260901112526 10 0 0.0 4.8 0.00 0.00 0.00 68 1014.8
20260901112025 10 219 1.6 4.8 0.00 0.00 0.00 68 1014.7
20260901111545 10 198 1.6 4.8 0.00 0.00 0.00 69 1014.9
20260901111028 10 205 1.6 6.4 0.00 0.00 0.00 69 1014.9
20260901110526 10 205 1.6 6.4 0.00 0.00 0.00 69 1014.8
20260901110052 10 207 1.6 6.4 0.00 0.00 0.00 69 1014.9
20260901105529 10 214 1.6 4.8 0.00 0.00 0.00 69 1014.8
20260901105026 10 204 0.0 4.8 0.00 0.00 0.00 70 1014.8
20260901104546 10 204 1.6 4.8 0.00 0.00 0.00 70 1014.7
20260901104028 10 203 1.6 6.4 0.00 0.00 0.00 71 1014.6
20260901103528 10 0 1.6 6.4 0.00 0.00 0.00 71 1014.8
20260901103044 10 0 0.0 4.8 0.00 0.00 0.00 71 1014.7
20260901102528 10 188 0.0 4.8 0.00 0.00 0.00 71 1014.8
20260901102025 9 0 0.0 0.0 0.00 0.00 0.00 71 1014.7
20260901101604 9 0 0.0 3.2 0.00 0.00 0.00 72 1014.7
20260901101024 10 0 0.0 3.2 0.00 0.00 0.00 72 1014.6
20260901100525 10 250 0.0 3.2 0.00 0.00 0.00 72 1014.6
20260901100051 10 0 0.0 6.4 0.00 0.00 0.00 72 1014.6
20260901095525 10 0 0.0 6.4 0.00 0.00 0.00 72 1014.7
20260901095027 10 250 1.6 6.4 0.00 0.00 0.00 73 1014.7
20260901094545 10 0 0.0 3.2 0.00 0.00 0.00 74 1014.7
20260901094029 10 0 0.0 3.2 0.00 0.00 0.00 74 1014.7
20260901093525 10 0 0.0 6.4 0.00 0.00 0.00 73 1014.7
20260901093050 10 205 3.2 6.4 0.00 0.00 0.00 71 1014.8
20260901092527 10 212 0.0 4.8 0.00 0.00 0.00 71 1014.7
20260901092028 10 0 0.0 1.6 0.00 0.00 0.00 71 1014.7
20260901091554 10 274 0.0 1.6 0.00 0.00 0.00 72 1014.7
20260901091025 10 0 0.0 3.2 0.00 0.00 0.00 72 1014.8
20260901090524 10 0 0.0 6.4 0.00 0.00 0.00 70 1014.8
20260901090046 10 274 1.6 6.4 0.00 0.00 0.00 69 1014.8
20260901085527 10 285 1.6 6.4 0.00 0.00 0.00 69 1014.8
20260901085027 10 309 0.0 4.8 0.00 0.00 0.00 69 1014.9
20260901084553 10 309 0.0 4.8 0.00 0.00 0.00 68 1015.0
20260901084025 11 242 0.0 3.2 0.00 0.00 0.00 68 1015.0
20260901083526 11 0 0.0 3.2 0.00 0.00 0.00 64 1015.1
20260901083047 11 0 0.0 3.2 0.00 0.00 0.00 64 1015.1
20260901082527 11 0 0.0 3.2 0.00 0.00 0.00 63 1015.0
20260901082028 11 0 0.0 3.2 0.00 0.00 0.00 62 1015.0
20260901081552 11 217 0.0 3.2 0.00 0.00 0.00 59 1015.0
20260901081025 11 217 0.0 3.2 0.00 0.00 0.00 60 1015.0
20260901080528 11 217 0.0 3.2 0.00 0.00 0.00 60 1015.0
20260901080141 11 0 0.0 3.2 0.00 0.00 0.00 58 1014.9
20260901075524 11 217 0.0 3.2 0.00 0.00 0.00 58 1014.9
20260901075026 11 0 0.0 3.2 0.00 0.00 0.00 56 1015.0
20260901074545 11 217 0.0 3.2 0.00 0.00 0.00 57 1015.0
20260901074027 11 217 0.0 4.8 0.00 0.00 0.00 57 1015.2
20260901073527 11 217 1.6 4.8 0.00 0.00 0.00 58 1015.2
20260901073045 11 206 1.6 4.8 0.00 0.00 0.00 60 1015.2
20260901072528 11 210 0.0 4.8 0.00 0.00 0.00 62 1015.3
20260901072026 11 210 1.6 6.4 0.00 0.00 0.00 62 1015.2
20260901071553 11 214 3.2 6.4 0.00 0.00 0.00 62 1015.2
20260901071031 11 205 4.8 6.4 0.00 0.00 0.00 64 1015.2
20260901070527 11 195 1.6 4.8 0.00 0.00 0.00 65 1015.2
20260901070048 11 207 1.6 6.4 0.00 0.00 0.00 67 1015.2
20260901065529 11 191 3.2 6.4 0.00 0.00 0.00 67 1015.3
20260901065024 11 200 1.6 4.8 0.00 0.00 0.00 67 1015.4
20260901064546 11 0 0.0 4.8 0.00 0.00 0.00 66 1015.4
20260901064025 11 200 1.6 4.8 0.00 0.00 0.00 66 1015.5
20260901063523 11 200 0.0 3.2 0.00 0.00 0.00 66 1015.6
20260901063058 11 0 0.0 0.0 0.00 0.00 0.00 66 1015.6
20260901062524 11 0 0.0 0.0 0.00 0.00 0.00 65 1015.6
20260901062027 11 0 0.0 3.2 0.00 0.00 0.00 64 1015.7
20260901061601 11 0 0.0 4.8 0.00 0.00 0.00 63 1015.7
20260901061024 11 236 0.0 4.8 0.00 0.00 0.00 63 1015.8
20260901060531 12 0 0.0 3.2 0.00 0.00 0.00 64 1015.7
20260901060045 12 223 1.6 3.2 0.00 0.00 0.00 64 1015.7
20260901055527 12 0 0.0 3.2 0.00 0.00 0.00 62 1015.7
20260901055027 12 0 0.0 3.2 0.00 0.00 0.00 60 1015.7
20260901054552 12 223 0.0 1.6 0.00 0.00 0.00 61 1015.5
20260901054025 12 0 0.0 3.2 0.00 0.00 0.00 59 1015.7
20260901053527 12 0 0.0 4.8 0.00 0.00 0.00 60 1015.6
20260901053049 12 0 0.0 4.8 0.00 0.00 0.00 59 1015.7
20260901052523 12 221 0.0 3.2 0.00 0.00 0.00 58 1015.5
20260901052030 13 0 0.0 0.0 0.00 0.00 0.00 60 1015.6
20260901051559 13 0 0.0 0.0 0.00 0.00 0.00 59 1015.6
20260901051029 13 0 0.0 0.0 0.00 0.00 0.00 59 1015.6
20260901050526 13 0 0.0 0.0 0.00 0.00 0.00 59 1015.7
20260901050052 13 0 0.0 0.0 0.00 0.00 0.00 58 1015.5
20260901045528 13 0 0.0 0.0 0.00 0.00 0.00 57 1015.6
20260901045026 13 0 0.0 0.0 0.00 0.00 0.00 57 1015.6
20260901044604 13 0 0.0 0.0 0.00 0.00 0.00 53 1015.6
20260901044025 13 0 0.0 1.6 0.00 0.00 0.00 52 1015.5
20260901043528 14 0 0.0 1.6 0.00 0.00 0.00 51 1015.8
20260901043047 14 0 0.0 1.6 0.00 0.00 0.00 51 1015.8
20260901042524 14 0 0.0 0.0 0.00 0.00 0.00 50 1015.7
20260901042024 14 0 0.0 0.0 0.00 0.00 0.00 48 1015.8
20260901041544 14 0 0.0 0.0 0.00 0.00 0.00 47 1016.0
20260901041028 14 0 0.0 0.0 0.00 0.00 0.00 47 1015.9
20260901040524 14 0 0.0 0.0 0.00 0.00 0.00 45 1015.9
20260901035524 15 0 0.0 0.0 0.00 0.00 0.00 47 1015.9
20260901035024 15 0 0.0 1.6 0.00 0.00 0.00 48 1015.8
20260901034551 15 0 0.0 1.6 0.00 0.00 0.00 47 1015.9
20260901034023 15 0 0.0 1.6 0.00 0.00 0.00 47 1015.8
20260901033524 15 0 0.0 3.2 0.00 0.00 0.00 50 1015.8
20260901033045 16 0 0.0 3.2 0.00 0.00 0.00 51 1015.7
20260901032524 16 51 0.0 3.2 0.00 0.00 0.00 49 1015.7
20260901032028 16 0 0.0 0.0 0.00 0.00 0.00 43 1015.6
20260901031545 16 0 0.0 0.0 0.00 0.00 0.00 44 1015.7
20260901031027 16 0 0.0 0.0 0.00 0.00 0.00 44 1015.6
20260901030524 16 0 0.0 0.0 0.00 0.00 0.00 42 1015.5
20260901030045 17 0 0.0 0.0 0.00 0.00 0.00 41 1015.4
20260901025527 17 0 0.0 0.0 0.00 0.00 0.00 42 1015.1
20260901025025 17 0 0.0 0.0 0.00 0.00 0.00 43 1015.1
20260901024558 17 0 0.0 0.0 0.00 0.00 0.00 43 1015.1
20260901024028 17 0 0.0 0.0 0.00 0.00 0.00 42 1015.1
20260901023526 17 0 0.0 0.0 0.00 0.00 0.00 43 1015.0
20260901023049 17 0 0.0 0.0 0.00 0.00 0.00 39 1015.2
20260901022531 18 0 0.0 0.0 0.00 0.00 0.00 41 1015.0
20260901022027 18 0 0.0 0.0 0.00 0.00 0.00 42 1015.0
20260901021604 18 0 0.0 0.0 0.00 0.00 0.00 41 1015.0
20260901021025 18 0 0.0 0.0 0.00 0.00 0.00 40 1015.2
20260901020527 19 0 0.0 0.0 0.00 0.00 0.00 39 1015.1
20260901020046 20 0 0.0 0.0 0.00 0.00 0.00 38 1015.0
20260901015523 20 0 0.0 0.0 0.00 0.00 0.00 36 1015.2
20260901015025 20 0 0.0 0.0 0.00 0.00 0.00 35 1015.2
20260901014546 21 0 0.0 0.0 0.00 0.00 0.00 36 1015.2
20260901014024 21 0 0.0 0.0 0.00 0.00 0.00 36 1015.2
20260901013527 21 0 0.0 0.0 0.00 0.00 0.00 37 1015.2
20260901013101 21 0 0.0 0.0 0.00 0.00 0.00 35 1015.2
20260901012528 22 0 0.0 0.0 0.00 0.00 0.00 34 1015.2
20260901012029 22 0 0.0 0.0 0.00 0.00 0.00 35 1015.1
20260901011545 22 0 0.0 0.0 0.00 0.00 0.00 35 1015.1
20260901011027 23 0 0.0 0.0 0.00 0.00 0.00 34 1015.1
20260901010525 23 0 0.0 0.0 0.00 0.00 0.00 33 1015.1
20260901010045 23 0 0.0 0.0 0.00 0.00 0.00 32 1015.0
20260901005524 24 0 0.0 0.0 0.00 0.00 0.00 31 1015.0
20260901005027 25 0 0.0 4.8 0.00 0.00 0.00 30 1014.9
20260901004548 25 0 0.0 4.8 0.00 0.00 0.00 29 1014.9
20260901004024 25 33 0.0 6.4 0.00 0.00 0.00 26 1014.9
20260901003524 26 0 1.6 9.7 0.00 0.00 0.00 25 1014.9
20260901003052 26 68 3.2 9.7 0.00 0.00 0.00 26 1015.0
20260901002526 26 30 4.8 9.7 0.00 0.00 0.00 23 1015.2
20260901002027 26 60 3.2 12.9 0.00 0.00 0.00 24 1015.2
20260901001546 26 20 6.4 12.9 0.00 0.00 0.00 24 1015.2
20260901001025 26 10 4.8 11.3 0.00 0.00 0.00 25 1015.1
20260901000524 26 37 4.8 11.3 0.00 0.00 0.00 21 1015.1
20260901000049 26 30 3.2 14.5 0.00 0.00 0.00 20 1015.3
20260831235525 26 28 6.4 14.5 0.00 0.00 0.00 20 1015.1
20260831235028 26 35 8.0 11.3 0.00 0.00 0.00 19 1015.3
20260831234544 26 25 3.2 12.9 0.00 0.00 0.00 22 1015.2
20260831234025 26 59 4.8 12.9 0.00 0.00 0.00 20 1015.4
20260831233528 26 30 6.4 12.9 0.00 0.00 0.00 22 1015.4
20260831233050 26 32 4.8 9.7 0.00 0.00 0.00 21 1015.5
20260831232526 26 41 4.8 11.3 0.00 0.00 0.00 21 1015.5
20260831232027 26 27 6.4 11.3 0.00 0.00 0.00 20 1015.6
20260831231603 26 52 3.2 9.7 0.00 0.00 0.00 21 1015.5
20260831231024 26 0 1.6 9.7 0.00 0.00 0.00 20 1015.7
20260831230525 26 30 3.2 11.3 0.00 0.00 0.00 21 1015.6
20260831230100 26 33 4.8 14.5 0.00 0.00 0.00 20 1015.5
20260831225525 26 93 4.8 14.5 0.00 0.00 0.00 23 1015.6
20260831225027 26 32 6.4 14.5 0.00 0.00 0.00 20 1015.5
20260831224616 26 30 4.8 11.3 0.00 0.00 0.00 19 1015.5
20260831224025 27 43 4.8 11.3 0.00 0.00 0.00 20 1015.5
20260831223524 27 62 6.4 12.9 0.00 0.00 0.00 18 1015.4
20260831223045 27 1 3.2 12.9 0.00 0.00 0.00 18 1015.5
20260831222526 26 330 1.6 6.4 0.00 0.00 0.00 20 1015.5
20260831222029 26 27 3.2 11.3 0.00 0.00 0.00 19 1015.5
20260831221555 26 2 3.2 11.3 0.00 0.00 0.00 20 1015.5
20260831221027 26 96 3.2 14.5 0.00 0.00 0.00 18 1015.7
20260831220525 26 97 6.4 14.5 0.00 0.00 0.00 17 1015.7
20260831220053 26 65 6.4 12.9 0.00 0.00 0.00 21 1015.8
20260831215526 26 28 4.8 9.7 0.00 0.00 0.00 21 1015.9
20260831215025 26 94 4.8 12.9 0.00 0.00 0.00 18 1015.8
20260831214549 26 41 4.8 12.9 0.00 0.00 0.00 20 1016.0
20260831214030 26 60 3.2 11.3 0.00 0.00 0.00 24 1016.0
20260831213525 26 70 4.8 11.3 0.00 0.00 0.00 17 1016.1
20260831213048 26 19 4.8 9.7 0.00 0.00 0.00 22 1016.2
20260831212524 26 333 3.2 9.7 0.00 0.00 0.00 23 1016.3
20260831212031 26 55 4.8 16.1 0.00 0.00 0.00 18 1016.3
20260831211605 26 138 8.0 16.1 0.00 0.00 0.00 22 1016.3
20260831211025 26 236 1.6 6.4 0.00 0.00 0.00 23 1016.4
20260831210529 26 13 0.0 9.7 0.00 0.00 0.00 18 1016.6
20260831210057 26 0 1.6 9.7 0.00 0.00 0.00 18 1016.5
20260831205525 26 349 1.6 8.0 0.00 0.00 0.00 20 1016.6
20260831205027 26 160 3.2 8.0 0.00 0.00 0.00 21 1016.7
20260831204546 26 229 3.2 8.0 0.00 0.00 0.00 22 1016.8
20260831204025 26 227 1.6 8.0 0.00 0.00 0.00 24 1017.0
20260831203525 25 186 3.2 8.0 0.00 0.00 0.00 22 1017.0
20260831203047 25 330 0.0 9.7 0.00 0.00 0.00 20 1016.8
20260831202525 25 63 1.6 9.7 0.00 0.00 0.00 19 1016.9
20260831202026 25 153 0.0 11.3 0.00 0.00 0.00 26 1017.1
20260831201556 25 147 4.8 11.3 0.00 0.00 0.00 19 1017.1
20260831201026 25 257 3.2 11.3 0.00 0.00 0.00 19 1017.3
20260831200526 25 276 4.8 11.3 0.00 0.00 0.00 21 1017.3
20260831200050 25 49 0.0 9.7 0.00 0.00 0.00 26 1017.3
20260831195527 25 148 4.8 9.7 0.00 0.00 0.00 24 1017.5
20260831195027 25 0 1.6 11.3 0.00 0.00 0.00 23 1017.4
20260831194555 24 189 4.8 12.9 0.00 0.00 0.00 22 1017.6
20260831194026 24 111 6.4 12.9 0.00 0.00 0.00 26 1017.6
20260831193524 24 155 3.2 11.3 0.00 0.00 0.00 27 1017.6
20260831193057 24 99 3.2 12.9 0.00 0.00 0.00 26 1017.5
20260831192526 23 229 3.2 12.9 0.00 0.00 0.00 24 1017.6
20260831192025 23 141 4.8 12.9 0.00 0.00 0.00 25 1017.6
20260831191551 23 79 4.8 14.5 0.00 0.00 0.00 25 1017.7
20260831191024 23 135 6.4 14.5 0.00 0.00 0.00 29 1017.8
20260831190524 23 150 4.8 14.5 0.00 0.00 0.00 33 1017.7
20260831190050 23 86 4.8 12.9 0.00 0.00 0.00 31 1017.8
20260831185525 23 59 6.4 12.9 0.00 0.00 0.00 30 1017.9
20260831185026 23 31 3.2 12.9 0.00 0.00 0.00 36 1018.0
20260831184551 23 81 3.2 12.9 0.00 0.00 0.00 31 1018.0
20260831184025 23 24 4.8 12.9 0.00 0.00 0.00 29 1018.1
20260831183528 23 98 3.2 11.3 0.00 0.00 0.00 27 1018.1
20260831183046 22 143 1.6 11.3 0.00 0.00 0.00 36 1018.2
20260831182525 22 169 1.6 11.3 0.00 0.00 0.00 29 1018.2
20260831182029 22 101 3.2 11.3 0.00 0.00 0.00 26 1018.3
20260831181548 22 56 4.8 11.3 0.00 0.00 0.00 27 1018.2
20260831181024 22 127 3.2 8.0 0.00 0.00 0.00 32 1018.3
20260831180526 22 0 1.6 8.0 0.00 0.00 0.00 28 1018.4
20260831180049 22 350 0.0 9.7 0.00 0.00 0.00 34 1018.4
20260831175525 22 77 3.2 9.7 0.00 0.00 0.00 28 1018.4
20260831175029 21 293 0.0 6.4 0.00 0.00 0.00 34 1018.4
20260831174548 21 360 1.6 6.4 0.00 0.00 0.00 29 1018.4
20260831174027 21 339 3.2 6.4 0.00 0.00 0.00 35 1018.4
20260831173524 21 269 1.6 6.4 0.00 0.00 0.00 28 1018.4
20260831173047 21 274 1.6 8.0 0.00 0.00 0.00 28 1018.4
20260831172524 21 262 3.2 8.0 0.00 0.00 0.00 33 1018.5
20260831172029 21 155 1.6 12.9 0.00 0.00 0.00 36 1018.6
20260831171545 20 56 3.2 12.9 0.00 0.00 0.00 44 1018.7
20260831171025 20 58 1.6 9.7 0.00 0.00 0.00 48 1018.7
20260831170529 20 127 3.2 8.0 0.00 0.00 0.00 48 1018.7
20260831170050 19 89 3.2 9.7 0.00 0.00 0.00 51 1018.6
20260831165527 19 131 3.2 9.7 0.00 0.00 0.00 50 1018.7
20260831165024 18 13 1.6 8.0 0.00 0.00 0.00 55 1018.7
20260831164545 18 96 4.8 8.0 0.00 0.00 0.00 53 1018.6
20260831164024 18 51 3.2 8.0 0.00 0.00 0.00 52 1018.6